FENGYUN 1C DEB

Satellite information

Favourite Embed

Satellite Type and Status

DEBRISIN ORBIT

Key statistics

Satellite FENGYUN 1C DEB at a glance.

Uptime

9715

Days in orbit

Revolutions

≈ 14.7

Per day

Orbit

SSO

Sun Synchronous Orbit

Inclination

98.7

Latest

Satellite identification and parameters

Extended collection of information and parameters for FENGYUN 1C DEB.

Object identification

Identified? True

Debris? True

Object name: FENGYUN 1C DEB

International designator: 1999-025ASF

Object number (NORAD): 30721

Object ID (CCSDS): 30721

Country: PEOPLES REPUBLIC OF CHINA (PRC)

Current information (Y/N): Y

RCS size: SMALL

Orbital parameters

Period: 97.83 minutes

Inclination: 98.7097 deg

SMA: 7033.03 km

Apoapsis: 674.603 km

Periapsis: 635.186 km

RAAN: 118.6818 deg

Eccentricy: 0.00280227

Argument of periapsis: 338.5754 deg

Mean anomaly: 83.8101 deg

Mean motion: 14.71936551 rev/day

Mean motion (dot): 0.00038177 rev/day2

B* drag term: 0.0060304881 1/REarth

Two-line elements (TLE)

Creation date: Dec. 13, 2025, 5:47 p.m.

Reference frame: TEME

Reference center: EARTH

Epoch: Dec. 13, 2025, 8:06 a.m. UTC

TLE line 0: 0 FENGYUN 1C DEB

TLE line 1: 1 30721U 99025ASF 25347.33801046 .00038177 00000-0 60305-2 0 9996

TLE line 2: 2 30721 98.7097 118.6818 0028023 338.5754 83.8101 14.71936551978511

Live tracking on map

Real-time ground track for satellite FENGYUN 1C DEB.

In-orbit conjunctions

A list of the most updated potential collisions computed for object FENGYUN 1C DEB.

Target Orbit TCA Probability of collision Miss distance Type
SL-3 R/B LEO 2025-03-05 23:07:22 0.0001370643 538.0 (m) ROCKET BODY
CZ-4C R/B SSO 2024-06-21 20:35:38 0.0001697007 372.0 (m) ROCKET BODY

Associated space launch

Chinese polar orbiting meteorological satellite

FENGYUN 1C DEB was lifted into orbit during the mission ‘Long March 4B | Feng Yun 1C’, on board a Long March 4B space rocket.

The launch took place on May 10, 1999, 1:33 a.m. from Launch Complex 7.

For more information about the launch, click the button.

Launch to space Long March 4B | Feng Yun 1C
Long March 4B | Feng Yun 1C

Agency: N/A

Status: Launch Successful

Launch date: May 10, 1999, 1:33 a.m. UTC

Rocket: Long March 4B

Launch pad: Launch Complex 7

Location: Taiyuan Satellite Launch Center, People's Republic of China

...

Latest news about this satellite

There are no fresh news available about this satellite. Check back as we update our databases every day.


Newsletter sign-up

Weekly statistics, charts and insights to help you stay on top of the space industry.